GW1374 Weather Reports


Display with metric or nautical units.
time (UTC)temp
F
wind
direction
speed
MPH
gust
MPH
rain 1hr
in
rain 24hr
in
rain mn
in
humidity
%
barometer
mb
20260504023043 50 304 1.0 3.0 0.00 0.00 0.00 51 1010.1
20260504021546 50 325 1.0 5.0 0.00 0.00 0.00 51 1010.2
20260504020126 50 298 1.0 5.0 0.00 0.00 0.00 50 1010.2
20260504014559 50 313 1.0 5.0 0.00 0.00 0.00 52 1010.1
20260504013055 50 0 1.0 4.0 0.00 0.00 0.00 52 1010.0
20260504011547 49 321 1.0 3.0 0.00 0.00 0.00 52 1010.0
20260504010048 50 34 1.0 3.0 0.00 0.00 0.00 51 1009.9
20260504004618 50 22 1.0 4.0 0.00 0.00 0.00 50 1009.7
20260504003052 51 293 2.0 5.0 0.00 0.00 0.00 49 1009.7
20260504001616 51 315 2.0 4.0 0.00 0.00 0.00 49 1009.5
20260504000046 51 309 0.0 3.0 0.00 0.00 0.00 47 1009.3
20260503234546 51 0 0.0 2.0 0.00 0.00 0.00 46 1009.0
20260503233044 52 273 1.0 3.0 0.00 0.00 0.00 44 1009.1
20260503231547 53 265 1.0 4.0 0.00 0.00 0.00 44 1008.9
20260503230107 52 309 1.0 3.0 0.00 0.00 0.00 44 1008.9
20260503224545 52 287 2.0 4.0 0.00 0.00 0.00 44 1009.0
20260503223048 53 93 1.0 6.0 0.00 0.00 0.00 43 1008.9
20260503221544 52 217 1.0 3.0 0.00 0.00 0.00 44 1009.1
20260503220049 53 254 4.0 9.0 0.00 0.00 0.00 42 1009.2
20260503214544 53 298 2.0 8.0 0.00 0.00 0.00 43 1009.2
20260503213044 53 72 2.0 7.0 0.00 0.00 0.00 43 1009.2
20260503211548 51 269 5.0 13.0 0.00 0.00 0.00 46 1009.2
20260503210046 51 303 4.0 9.0 0.00 0.00 0.00 45 1009.2
20260503204541 51 319 2.0 10.0 0.00 0.00 0.00 45 1009.4
20260503203059 52 18 3.0 10.0 0.00 0.00 0.00 44 1009.3
20260503201543 53 178 2.0 11.0 0.00 0.00 0.00 43 1009.3
20260503200041 52 314 5.0 10.0 0.00 0.00 0.00 39 1009.3
20260503194545 53 261 3.0 9.0 0.00 0.00 0.00 39 1009.4
20260503193047 52 265 4.0 11.0 0.00 0.00 0.00 38 1009.5
20260503191547 53 292 4.0 9.0 0.00 0.00 0.00 36 1009.7
20260503190046 53 325 3.0 10.0 0.00 0.00 0.00 38 1009.8
20260503184543 54 9 3.0 11.0 0.00 0.00 0.00 36 1009.8
20260503183040 53 9 3.0 8.0 0.00 0.00 0.00 39 1009.9
20260503181554 53 17 4.0 11.0 0.00 0.00 0.00 36 1010.3
20260503180052 52 325 4.0 11.0 0.00 0.00 0.00 40 1010.4
20260503174546 52 298 2.0 8.0 0.00 0.00 0.00 39 1010.6
20260503173044 51 319 3.0 10.0 0.00 0.00 0.00 39 1010.8
20260503171541 51 307 3.0 7.0 0.00 0.00 0.00 38 1011.0
20260503081555 36 301 1.0 4.0 0.00 0.00 0.00 78 1011.1
20260503071541 36 0 1.0 4.0 0.00 0.00 0.00 78 1011.1
20260503060109 36 0 1.0 2.0 0.00 0.00 0.00 78 1011.5
20260503054559 36 292 0.0 2.0 0.00 0.00 0.00 77 1011.6
20260503053044 36 298 0.0 2.0 0.00 0.00 0.00 77 1011.7
20260503051546 36 292 0.0 2.0 0.00 0.00 0.00 77 1011.9
20260503050047 36 282 0.0 3.0 0.00 0.00 0.00 77 1011.9
20260503044541 36 0 1.0 3.0 0.00 0.00 0.00 77 1011.9
20260503043042 36 51 1.0 3.0 0.00 0.00 0.00 78 1012.3
20260503041548 36 309 1.0 2.0 0.00 0.00 0.00 77 1012.4
20260503040048 36 309 1.0 2.0 0.00 0.00 0.00 77 1012.3
20260503034545 36 292 0.0 2.0 0.00 0.01 0.00 75 1012.2
20260503033041 36 0 0.0 3.0 0.00 0.01 0.00 74 1012.5
20260503031546 36 309 0.0 2.0 0.00 0.01 0.00 74 1012.5
20260503030048 37 9 1.0 3.0 0.00 0.01 0.00 74 1012.4
20260503024549 37 0 0.0 3.0 0.00 0.05 0.00 74 1012.3